Weather History for KPHF - March, 2013

Change the Weather History Date:

Tuesday, March 19, 2013

  Actual Average Record
Temperature  
Mean Temperature 53 °F -  
Max Temperature 64 °F 58 °F 77 °F (2008)
Min Temperature 42 °F 40 °F 23 °F (1967)
Degree Days  
Heating Degree Days 12    
Growing Degree Days 3 (Base 50)    
Moisture  
Dew Point 35 °F    
Average Humidity 64    
Maximum Humidity 86    
Minimum Humidity 17    
Precipitation  
Precipitation 0.01 in - - ()
Sea Level Pressure  
Sea Level Pressure 29.82 in    
Wind  
Wind Speed 5 mph (West)    
Max Wind Speed 18 mph    
Max Gust Speed 24 mph    
Visibility 7 miles    
Events Rain    
Averages and records for this station are not official NWS values.
T = Trace of Precipitation, MM = Missing Value Source: NWS Daily Summary

Daily Weather History Graph

Daily Weather History Graph

Search for Another Location

Airport or City:

Trip Planner

Search our weather history database for the weather conditions in past years. The results will help you decide how hot, cold, wet, or windy it might be!

Date:

Astronomy

Mar. 19, 2013 Rise Set
Actual Time 7:10 AM EDT 7:17 PM EDT
Civil Twilight 6:44 AM EDT 7:43 PM EDT
Nautical Twilight 6:14 AM EDT 8:13 PM EDT
Astronomical Twilight 5:43 AM EDT 8:44 PM EDT
Moon 12:06 PM EDT (3/19) 1:54 AM EDT (3/19)
Length of Visible Light 12h 58m
Length of Day
12h 06m
Waxing Crescent, 49% of the Moon is Illuminated
Mar 19
Waxing Crescent
Mar 19
First Quarter
Mar 27
Full
Apr 3
Last Quarter
Apr 10
New

Hourly Weather History & Observations

Time (EDT) Temp. Windchill Dew Point Humidity Pressure Visibility Wind Dir Wind Speed Gust Speed Precip Events Conditions
12:54 AM 45.0 °F - 41.0 °F 86% 29.84 in 9.0 mi Calm Calm - 0.00 in   Overcast
1:54 AM 44.1 °F 40.1 °F 39.9 °F 85% 29.87 in 10.0 mi WNW 6.9 mph - 0.01 in Rain Light Rain
2:54 AM 43.0 °F 40.3 °F 37.9 °F 82% 29.84 in 10.0 mi NW 4.6 mph - 0.00 in   Overcast
3:54 AM 42.1 °F 37.7 °F 37.0 °F 82% 29.84 in 7.0 mi WNW 6.9 mph - N/A   Overcast
4:54 AM 42.1 °F - 37.9 °F 85% 29.81 in 5.0 mi Calm Calm - N/A   Overcast
5:21 AM 42.8 °F - 37.4 °F 81% 29.80 in 1.8 mi Calm Calm - N/A   Haze
5:42 AM 42.8 °F - 37.4 °F 81% 29.80 in 2.5 mi Calm Calm - N/A   Overcast
5:54 AM 42.1 °F - 37.9 °F 85% 29.80 in 2.5 mi Calm Calm - N/A   Overcast
6:23 AM 42.8 °F - 37.4 °F 81% 29.80 in 1.8 mi Calm Calm - 0.00 in   Haze
6:41 AM 42.8 °F - 37.4 °F 81% 29.80 in 2.5 mi Calm Calm - 0.00 in   Overcast
6:50 AM 42.8 °F 40.1 °F 37.4 °F 81% 29.80 in 3.0 mi SSW 4.6 mph - 0.00 in   Haze
6:54 AM 43.0 °F 41.3 °F 37.9 °F 82% 29.81 in 4.0 mi SSW 3.5 mph - 0.00 in   Haze
7:54 AM 43.0 °F 40.3 °F 37.9 °F 82% 29.79 in 3.0 mi SW 4.6 mph - N/A   Haze
8:07 AM 44.6 °F 42.2 °F 39.2 °F 81% 29.79 in 1.8 mi SW 4.6 mph - N/A   Haze
8:54 AM 45.0 °F 41.2 °F 39.9 °F 82% 29.81 in 1.0 mi WSW 6.9 mph - N/A   Haze
9:04 AM 44.6 °F 39.7 °F 39.2 °F 81% 29.80 in 2.5 mi SW 9.2 mph - N/A   Haze
9:13 AM 44.6 °F 39.7 °F 39.2 °F 81% 29.80 in 3.0 mi WSW 9.2 mph - N/A   Haze
9:54 AM 45.0 °F 40.1 °F 39.9 °F 82% 29.83 in 4.0 mi WSW 9.2 mph - N/A   Haze
10:20 AM 46.4 °F 41.9 °F 39.2 °F 76% 29.82 in 7.0 mi WNW 9.2 mph - N/A   Overcast
10:54 AM 46.9 °F - 39.0 °F 74% 29.83 in 10.0 mi NW 12.7 mph 20.7 mph N/A   Overcast
11:54 AM 48.0 °F - 39.9 °F 74% 29.85 in 10.0 mi WNW 8.1 mph - N/A   Overcast
12:33 PM 50.0 °F - 39.2 °F 66% 29.84 in 10.0 mi West 4.6 mph - N/A   Partly Cloudy
12:54 PM 51.1 °F - 41.0 °F 68% 29.83 in 10.0 mi West 6.9 mph - N/A   Clear
1:54 PM 55.9 °F - 42.1 °F 60% 29.82 in 10.0 mi West 9.2 mph - N/A   Clear
2:54 PM 59.0 °F - 39.9 °F 49% 29.79 in 10.0 mi WNW 8.1 mph - N/A   Clear
3:54 PM 61.0 °F - 37.9 °F 42% 29.77 in 10.0 mi NW 6.9 mph - N/A   Clear
4:54 PM 63.0 °F - 37.9 °F 40% 29.78 in 10.0 mi Variable 5.8 mph - N/A   Clear
5:54 PM 63.0 °F - 37.9 °F 40% 29.77 in 10.0 mi SW 9.2 mph - N/A   Clear
6:54 PM 64.0 °F - 23.0 °F 21% 29.79 in 10.0 mi West 16.1 mph 23.0 mph N/A   Clear
7:54 PM 63.0 °F - 18.0 °F 18% 29.82 in 10.0 mi West 18.4 mph 24.2 mph N/A   Clear
8:54 PM 60.1 °F - 19.9 °F 21% 29.85 in 10.0 mi West 11.5 mph 19.6 mph N/A   Clear
9:54 PM 57.9 °F - 16.0 °F 19% 29.89 in 10.0 mi WNW 12.7 mph 20.7 mph N/A   Clear
10:54 PM 55.9 °F - 15.1 °F 20% 29.92 in 10.0 mi WNW 11.5 mph - N/A   Clear
11:54 PM 55.0 °F - 10.9 °F 17% 29.94 in 10.0 mi WNW 12.7 mph 20.7 mph N/A   Clear